Location: Lane
(33.5226°N, 79.8788°W)
Time: 02:02:30
(UTC+00:00)

Tiros 1 despin weight - Pass Details

Date: 10 October 2022
Orbit: 590 x 637 km, 48.2° (Epoch: 30 November)

Event Time Altitude Azimuth Distance (km) Brightness Sun altitude
Rises 21:49:04 0° 312° (NW) 2,848 ? 12.0°
Reaches altitude 10° 21:52:29 10° 340° (NNW) 1,956 ? 11.3°
Maximum altitude 21:54:44 14° 10° (N) 1,742 ? 10.9°
Drops below altitude 10° 21:56:59 10° 40° (NE) 1,971 ? 10.4°
Sets 22:00:27 0° 67° (ENE) 2,888 ? 9.7°
